This is the latest recevied weather packets stored in our database for station/object N5GMJ. If no packets are shown the sender has not sent any weather packets the latest 1 day(s).
| Time | Temp. | Humidity | Pressure | Rain* | Wind** | Luminosity | Snow |
|---|---|---|---|---|---|---|---|
| 1778021334 | 25° C | 62% | 1006.4 hPa | 0 mm | 1.79 m/s, 1° | - | - |
| 1778021032 | 25° C | 62% | 1006.6 hPa | 0 mm | 3.13 m/s, 335° | - | - |
| 1778020729 | 25.56° C | 61% | 1006.5 hPa | 0 mm | 3.58 m/s, 330° | - | - |
| 1778020426 | 25.56° C | 62% | 1006.3 hPa | 0 mm | 2.68 m/s, 296° | - | - |
| 1778020121 | 25.56° C | 60% | 1006.1 hPa | 0 mm | 2.68 m/s, 356° | - | - |
| 1778019818 | 26.11° C | 61% | 1006.1 hPa | 0 mm | 2.68 m/s, 324° | - | - |
| 1778019515 | 25.56° C | 62% | 1006.2 hPa | 0 mm | 3.13 m/s, 335° | - | - |
| 1778019212 | 26.11° C | 63% | 1006.1 hPa | 0 mm | 3.13 m/s, 321° | - | - |
| 1778018909 | 26.11° C | 63% | 1006 hPa | 0 mm | 2.68 m/s, 332° | - | - |
| 1778018606 | 26.67° C | 61% | 1005.9 hPa | 0 mm | 3.58 m/s, 345° | - | - |
| 1778018304 | 26.67° C | 62% | 1005.9 hPa | 0 mm | 2.68 m/s, 299° | - | - |
| 1778018002 | 27.22° C | 59% | 1005.8 hPa | 0 mm | 4.47 m/s, 327° | - | - |
| 1778017699 | 27.22° C | 57% | 1006 hPa | 0 mm | 2.68 m/s, 318° | - | - |
| 1778017397 | 27.78° C | 56% | 1005.7 hPa | 0 mm | 3.58 m/s, 304° | - | - |
| 1778017093 | 27.78° C | 55% | 1005.6 hPa | 0 mm | 2.68 m/s, 333° | - | - |
| 1778016792 | 28.33° C | 51% | 1005.8 hPa | 0 mm | 1.34 m/s, 284° | - | - |
| 1778016487 | 27.78° C | 49% | 1006 hPa | 0 mm | 1.79 m/s, 303° | - | - |
| 1778016185 | 27.78° C | 49% | 1005.9 hPa | 0 mm | 2.24 m/s, 309° | - | - |
| 1778015880 | 28.33° C | 49% | 1005.9 hPa | 0 mm | 2.24 m/s, 309° | - | - |
| 1778015579 | 28.33° C | 50% | 1005.7 hPa | 0 mm | 1.79 m/s, 317° | - | - |
| 1778015274 | 28.33° C | 49% | 1005.8 hPa | 0 mm | 2.24 m/s, 308° | - | - |
| 1778014972 | 28.89° C | 46% | 1005.9 hPa | 0 mm | 0.89 m/s, 0° | - | - |
| 1778014669 | 28.89° C | 45% | 1005.9 hPa | 0 mm | 1.34 m/s, 291° | - | - |
| 1778014367 | 29.44° C | 46% | 1005.9 hPa | 0 mm | 3.13 m/s, 318° | - | - |
| 1778014063 | 29.44° C | 45% | 1005.7 hPa | 0 mm | 2.24 m/s, 307° | - | - |
* Rain latest hour (hover to see other rain measurements)
** Current wind speed in m/s (hover to see current wind gust speed)